Location: ??????
(55.6361°N, 38.0803°E)
Time: 20:36:24
(UTC+00:00)

SL-16 R/B - Pass Details

Date: 30 March 2020
Orbit: 985 x 1007 km, 99.5° (Epoch: 30 May)

Event Time Altitude Azimuth Distance (km) Brightness Sun altitude
Exits shadow 01:06:37 14° 277° (W) 2,490 4.2 -16.1°
Maximum altitude 01:06:45 14° 279° (W) 2,489 4.2 -16.1°
Drops below altitude 10° 01:09:55 10° 310° (NW) 2,786 4.7 -15.8°
Sets 01:13:52 0° 334° (NNW) 3,738 5.6 -15.3°
